Simultaneous Nadir Overpasses (SNOs) Predictions

Prediction of SNOs between AQUA and GOES-15 Satellite Orbit:

Table of predicted SNOs for the next 14.0 days since TLE Epoch: 9/19/2014
Index Date Time (AQUA) AQUA Lat,Lon GOES-15 Lat,Lon Distance(km) Time Diff (sec)
1 09/19/2014 10:32:01 0.11,-134.09 0.31,-135.11 115.17 80
2 09/19/2014 22:53:25 -1.20,-139.29 -0.30,-135.12 474.15 80
3 09/21/2014 10:19:52 -0.56,-131.15 0.31,-135.16 456.48 80
4 09/21/2014 22:41:16 -0.53,-136.35 -0.30,-135.18 132.83 80
5 09/23/2014 22:29:07 0.11,-133.40 -0.30,-135.22 208.26 80
6 09/24/2014 10:50:22 0.97,-138.56 0.28,-135.24 377.16 80
7 09/26/2014 10:38:11 0.36,-135.60 0.28,-135.28 36.71 80
8 09/28/2014 10:26:00 -0.27,-132.65 0.28,-135.31 303.06 80
9 09/28/2014 22:47:25 -0.78,-137.85 -0.26,-135.32 287.44 80
10 09/30/2014 22:35:13 -0.18,-134.89 -0.26,-135.34 51.43 80
11 10/02/2014 22:23:01 0.45,-131.93 -0.26,-135.36 389.74 80




NCC Satellite Simultaneous Nadir Overpasses (SNOs) Prediction Service
